Home > Weather > Rustenburg > Past weeks

Flag for South Africa Weather for the Past 2 Weeks in Rustenburg, South Africa

Now
73 °F

Passing clouds.


Feels Like: 76 °F
Forecast: 61 / 90 °F
Wind: 10 mph from Southwest

Location: Lanseria Civ / Mil

Current Time: Feb 10, 2016 at 10:57:37 AM

Latest Report: Feb 10, 2016 at 10:00 AM


Visibility: N/A

Pressure: 30.18 "Hg (26.38 "Hg at 1166m altitude)

Humidity: 65%

Dew point: 61 °F

Location of RustenburgLocation

Historic Weather in Rustenburg — Graph

°F

Rustenburg Temperature Yesterday

Maximum temperature yesterday: 82 °F (at 4:00 PM)
Minimum temperature yesterday: 63 °F (at 3:00 AM)
Average temperature yesterday: 72 °F

High & Low Weather Summary for the Past Weeks

 TemperatureHumidityPressure
High90 °F (Feb 2, 3:00 PM)100% (Feb 7, 4:00 AM)30.36 "Hg (Feb 7, 4:00 AM)
Low61 °F (Feb 1, 6:00 AM)21% (Jan 30, 5:00 PM)29.98 "Hg (Feb 4, 3:00 PM)
Average74 °F59%30.16 "Hg
* Reported Jan 26 9:00 AM — Feb 10 9:00 AM, Rustenburg, Weather by CustomWeather, © 2016

Note: Actual official high and low records may vary slightly from our data, if they occured in-between our weather recording intervals... More about our weather records

Advertising

Rustenburg Weather History for the Previous 24 Hours

 ConditionsComfort  
Time TempWeatherWind HumidityBarometerVisibility
9:00 AM
Wed, Feb 10
72 °FSunny.9 mph65%30.15 "Hg10 mi
8:00 AM68 °FClear.7 mph78%30.15 "Hg6 mi
7:00 AM68 °FClear.3 mph78%30.15 "Hg5 mi
6:00 AM66 °FMild.7 mph88%30.12 "Hg5 mi
5:00 AM66 °FPassing clouds.3 mph83%30.15 "HgN/A
4:00 AM68 °FMild.3 mph78%30.12 "HgN/A
3:00 AM68 °FMild.3 mph78%30.12 "HgN/A
2:00 AM66 °FMild.8 mph83%30.12 "HgN/A
1:00 AM68 °FMild.No wind78%30.12 "HgN/A
12:00 AM70 °FMild.5 mph69%30.15 "HgN/A
11:00 PM
Tue, Feb 9
72 °FMild.6 mph65%30.15 "HgN/A
10:00 PM73 °FClear.7 mph53%30.12 "Hg10 mi
9:00 PM73 °FPassing clouds.7 mph50%30.12 "HgN/A
8:00 PM75 °FThundershowers. Passing clouds.3 mph65%30.12 "HgN/A
7:00 PM77 °FPassing clouds.7 mph57%30.09 "HgN/A
6:00 PM81 °FPassing clouds.9 mph51%30.09 "HgN/A
5:00 PM81 °FScattered clouds.9 mph48%30.07 "HgN/A
4:00 PM82 °FScattered clouds.7 mph45%30.09 "HgN/A
3:00 PM81 °FScattered clouds.6 mph48%30.12 "HgN/A
2:00 PM79 °FScattered clouds.8 mph54%30.15 "HgN/A
1:00 PM79 °FScattered clouds.7 mph51%30.15 "HgN/A
12:00 PM77 °FPassing clouds.7 mph54%30.18 "HgN/A
11:00 AM75 °FPassing clouds.12 mph61%30.21 "HgN/A
10:00 AM73 °FPassing clouds.9 mph65%30.21 "HgN/A
Weather by CustomWeather, © 2016

See weather overviewHow to use our weather pages